Year,Month,Day,Hour,Minute,Value (Times are PST for temperature in C)
2020,05,27,00,00,8.80
2020,05,27,00,01,8.80
2020,05,27,00,02,8.80
2020,05,27,00,03,8.80
2020,05,27,00,04,8.80
2020,05,27,00,05,8.80
2020,05,27,00,06,8.80
2020,05,27,00,07,8.80
2020,05,27,00,08,8.80
2020,05,27,00,09,8.70
2020,05,27,00,10,8.70
2020,05,27,00,11,8.70
2020,05,27,00,12,8.70
2020,05,27,00,13,8.60
2020,05,27,00,14,8.60
2020,05,27,00,15,8.60
2020,05,27,00,16,8.60
2020,05,27,00,17,8.60
2020,05,27,00,18,8.60
2020,05,27,00,19,8.70
2020,05,27,00,20,8.70
2020,05,27,00,21,8.70
2020,05,27,00,22,8.70
2020,05,27,00,23,8.70
2020,05,27,00,24,8.60
2020,05,27,00,25,8.60
2020,05,27,00,26,8.60
2020,05,27,00,27,8.70
2020,05,27,00,28,8.70
2020,05,27,00,29,8.70
2020,05,27,00,30,8.70
2020,05,27,00,31,8.70
2020,05,27,00,32,8.70
2020,05,27,00,33,8.70
2020,05,27,00,34,8.70
2020,05,27,00,35,8.70
2020,05,27,00,36,8.70
2020,05,27,00,37,8.70
2020,05,27,00,38,8.70
2020,05,27,00,39,8.70
2020,05,27,00,40,8.60
2020,05,27,00,41,8.60
2020,05,27,00,42,8.60
2020,05,27,00,43,8.60
2020,05,27,00,44,8.60
2020,05,27,00,45,8.60
2020,05,27,00,46,8.60
2020,05,27,00,47,8.60
2020,05,27,00,48,8.60
2020,05,27,00,49,8.50
2020,05,27,00,50,8.50
2020,05,27,00,51,8.50
2020,05,27,00,52,8.50
2020,05,27,00,53,8.50
2020,05,27,00,54,8.40
2020,05,27,00,55,8.40
2020,05,27,00,56,8.40
2020,05,27,00,57,8.40
2020,05,27,00,58,8.40
2020,05,27,00,59,8.40
2020,05,27,01,00,8.40
2020,05,27,01,01,8.50
2020,05,27,01,02,8.40
2020,05,27,01,03,8.40
2020,05,27,01,04,8.40
2020,05,27,01,05,8.50
2020,05,27,01,06,8.50
2020,05,27,01,07,8.50
2020,05,27,01,08,8.60
2020,05,27,01,09,8.60
2020,05,27,01,10,8.60
2020,05,27,01,11,8.50
2020,05,27,01,12,8.50
2020,05,27,01,13,8.50
2020,05,27,01,14,8.50
2020,05,27,01,15,8.50
2020,05,27,01,16,8.40
2020,05,27,01,17,8.40
2020,05,27,01,18,8.40
2020,05,27,01,19,8.40
2020,05,27,01,20,8.40
2020,05,27,01,21,8.40
2020,05,27,01,22,8.30
2020,05,27,01,23,8.30
2020,05,27,01,24,8.30
2020,05,27,01,25,8.30
2020,05,27,01,26,8.30
2020,05,27,01,27,8.20
2020,05,27,01,28,8.20
2020,05,27,01,29,8.20
2020,05,27,01,30,8.20
2020,05,27,01,31,8.20
2020,05,27,01,32,8.30
2020,05,27,01,33,8.30
2020,05,27,01,34,8.30
2020,05,27,01,35,8.30
2020,05,27,01,36,8.30
2020,05,27,01,37,8.30
2020,05,27,01,38,8.20
2020,05,27,01,39,8.20
2020,05,27,01,40,8.20
2020,05,27,01,41,8.20
2020,05,27,01,42,8.20
2020,05,27,01,43,8.20
2020,05,27,01,44,8.20
2020,05,27,01,45,8.20
2020,05,27,01,46,8.20
2020,05,27,01,47,8.20
2020,05,27,01,48,8.20
2020,05,27,01,49,8.20
2020,05,27,01,50,8.20
2020,05,27,01,51,8.20
2020,05,27,01,52,8.20
2020,05,27,01,53,8.20
2020,05,27,01,54,8.20
2020,05,27,01,55,8.20
2020,05,27,01,56,8.10
2020,05,27,01,57,8.10
2020,05,27,01,58,8.10
2020,05,27,01,59,8.20
2020,05,27,02,00,8.20
2020,05,27,02,01,8.20
2020,05,27,02,02,8.20
2020,05,27,02,03,8.20
2020,05,27,02,04,8.20
2020,05,27,02,05,8.20
2020,05,27,02,06,8.20
2020,05,27,02,07,8.20
2020,05,27,02,08,8.20
2020,05,27,02,09,8.20
2020,05,27,02,10,8.20
2020,05,27,02,11,8.20
2020,05,27,02,12,8.10
2020,05,27,02,13,8.10
2020,05,27,02,14,8.10
2020,05,27,02,15,8.10
2020,05,27,02,16,8.10
2020,05,27,02,17,8.10
2020,05,27,02,18,8.10
2020,05,27,02,19,8.20
2020,05,27,02,20,8.20
2020,05,27,02,21,8.20
2020,05,27,02,22,8.20
2020,05,27,02,23,8.20
2020,05,27,02,24,8.20
2020,05,27,02,25,8.20
2020,05,27,02,26,8.10
2020,05,27,02,27,8.10
2020,05,27,02,28,8.10
2020,05,27,02,29,8.10
2020,05,27,02,30,8.10
2020,05,27,02,31,8.10
2020,05,27,02,32,8.10
2020,05,27,02,33,8.10
2020,05,27,02,34,8.10
2020,05,27,02,35,8.10
2020,05,27,02,36,8.10
2020,05,27,02,37,8.10
2020,05,27,02,38,8.10
2020,05,27,02,39,8.10
2020,05,27,02,40,8.10
2020,05,27,02,41,8.10
2020,05,27,02,42,8.10
2020,05,27,02,43,8.10
2020,05,27,02,44,8.10
2020,05,27,02,45,8.10
2020,05,27,02,46,8.10
2020,05,27,02,47,8.10
2020,05,27,02,48,8.10
2020,05,27,02,49,8.10
2020,05,27,02,50,8.10
2020,05,27,02,51,8.10
2020,05,27,02,52,8.10
2020,05,27,02,53,8.10
2020,05,27,02,54,8.10
2020,05,27,02,55,8.10
2020,05,27,02,56,8.00
2020,05,27,02,57,8.00
2020,05,27,02,58,8.00
2020,05,27,02,59,8.00
2020,05,27,03,00,8.00
2020,05,27,03,01,8.10
2020,05,27,03,02,8.10
2020,05,27,03,03,8.10
2020,05,27,03,04,8.10
2020,05,27,03,05,8.10
2020,05,27,03,06,8.00
2020,05,27,03,07,8.00
2020,05,27,03,08,8.00
2020,05,27,03,09,8.00
2020,05,27,03,10,7.90
2020,05,27,03,11,7.90
2020,05,27,03,12,7.90
2020,05,27,03,13,7.90
2020,05,27,03,14,7.90
2020,05,27,03,15,7.90
2020,05,27,03,16,7.90
2020,05,27,03,17,7.90
2020,05,27,03,18,7.90
2020,05,27,03,19,7.90
2020,05,27,03,20,7.90
2020,05,27,03,21,7.90
2020,05,27,03,22,7.90
2020,05,27,03,23,7.90
2020,05,27,03,24,7.90
2020,05,27,03,25,7.90
2020,05,27,03,26,7.90
2020,05,27,03,27,7.90
2020,05,27,03,28,7.90
2020,05,27,03,29,7.90
2020,05,27,03,30,7.90
2020,05,27,03,31,7.90
2020,05,27,03,32,7.90
2020,05,27,03,33,7.90
2020,05,27,03,34,7.90
2020,05,27,03,35,7.90
2020,05,27,03,36,7.90
2020,05,27,03,37,7.90
2020,05,27,03,38,7.90
2020,05,27,03,39,7.90
2020,05,27,03,40,7.90
2020,05,27,03,41,7.90
2020,05,27,03,42,7.90
2020,05,27,03,43,7.90
2020,05,27,03,44,7.90
2020,05,27,03,45,7.90
2020,05,27,03,46,8.00
2020,05,27,03,47,8.00
2020,05,27,03,48,8.00
2020,05,27,03,49,8.10
2020,05,27,03,50,8.10
2020,05,27,03,51,8.10
2020,05,27,03,52,8.10
2020,05,27,03,53,8.10
2020,05,27,03,54,8.10
2020,05,27,03,55,8.10
2020,05,27,03,56,8.10
2020,05,27,03,57,8.10
2020,05,27,03,58,8.00
2020,05,27,03,59,8.00
2020,05,27,04,00,8.00
2020,05,27,04,01,8.00
2020,05,27,04,02,7.90
2020,05,27,04,03,7.90
2020,05,27,04,04,7.90
2020,05,27,04,05,7.90
2020,05,27,04,06,7.90
2020,05,27,04,07,8.00
2020,05,27,04,08,8.00
2020,05,27,04,09,8.00
2020,05,27,04,10,8.10
2020,05,27,04,11,8.10
2020,05,27,04,12,8.10
2020,05,27,04,13,8.10
2020,05,27,04,14,8.10
2020,05,27,04,15,8.10
2020,05,27,04,16,8.00
2020,05,27,04,17,8.00
2020,05,27,04,18,8.00
2020,05,27,04,19,7.90
2020,05,27,04,20,7.90
2020,05,27,04,21,7.90
2020,05,27,04,22,7.90
2020,05,27,04,23,7.90
2020,05,27,04,24,7.90
2020,05,27,04,25,7.90
2020,05,27,04,26,7.90
2020,05,27,04,27,7.80
2020,05,27,04,28,7.80
2020,05,27,04,29,7.80
2020,05,27,04,30,7.80
2020,05,27,04,31,7.80
2020,05,27,04,32,7.80
2020,05,27,04,33,7.80
2020,05,27,04,34,7.80
2020,05,27,04,35,7.80
2020,05,27,04,36,7.80
2020,05,27,04,37,7.80
2020,05,27,04,38,7.80
2020,05,27,04,39,7.80
2020,05,27,04,40,7.80
2020,05,27,04,41,7.80
2020,05,27,04,42,7.80
2020,05,27,04,43,7.80
2020,05,27,04,44,7.80
2020,05,27,04,45,7.80
2020,05,27,04,46,7.80
2020,05,27,04,47,7.80
2020,05,27,04,48,7.80
2020,05,27,04,49,7.70
2020,05,27,04,50,7.70
2020,05,27,04,51,7.70
2020,05,27,04,52,7.70
2020,05,27,04,53,7.70
2020,05,27,04,54,7.70
2020,05,27,04,55,7.70
2020,05,27,04,56,7.70
2020,05,27,04,57,7.70
2020,05,27,04,58,7.70
2020,05,27,04,59,7.70
2020,05,27,05,00,7.70
2020,05,27,05,01,7.70
2020,05,27,05,02,7.70
2020,05,27,05,03,7.70
2020,05,27,05,04,7.60
2020,05,27,05,05,7.60
2020,05,27,05,06,7.60
2020,05,27,05,07,7.60
2020,05,27,05,08,7.60
2020,05,27,05,09,7.60
2020,05,27,05,10,7.60
2020,05,27,05,11,7.60
2020,05,27,05,12,7.50
2020,05,27,05,13,7.50
2020,05,27,05,14,7.50
2020,05,27,05,15,7.50
2020,05,27,05,16,7.50
2020,05,27,05,17,7.40
2020,05,27,05,18,7.40
2020,05,27,05,19,7.40
2020,05,27,05,20,7.40
2020,05,27,05,21,7.40
2020,05,27,05,22,7.40
2020,05,27,05,23,7.40
2020,05,27,05,24,7.40
2020,05,27,05,25,7.40
2020,05,27,05,26,7.40
2020,05,27,05,27,7.40
2020,05,27,05,28,7.40
2020,05,27,05,29,7.30
2020,05,27,05,30,7.30
2020,05,27,05,31,7.30
2020,05,27,05,32,7.30
2020,05,27,05,33,7.30
2020,05,27,05,34,7.30
2020,05,27,05,35,7.30
2020,05,27,05,36,7.40
2020,05,27,05,37,7.30
2020,05,27,05,38,7.30
2020,05,27,05,39,7.30
2020,05,27,05,40,7.30
2020,05,27,05,41,7.30
2020,05,27,05,42,7.30
2020,05,27,05,43,7.30
2020,05,27,05,44,7.30
2020,05,27,05,45,7.30
2020,05,27,05,46,7.40
2020,05,27,05,47,7.50
2020,05,27,05,48,7.50
2020,05,27,05,49,7.60
2020,05,27,05,50,7.50
2020,05,27,05,51,7.50
2020,05,27,05,52,7.50
2020,05,27,05,53,7.50
2020,05,27,05,54,7.50
2020,05,27,05,55,7.50
2020,05,27,05,56,7.50
2020,05,27,05,57,7.50
2020,05,27,05,58,7.60
2020,05,27,05,59,7.60
2020,05,27,06,00,7.60
2020,05,27,06,01,7.60
2020,05,27,06,02,7.60
2020,05,27,06,03,7.50
2020,05,27,06,04,7.50
2020,05,27,06,05,7.50
2020,05,27,06,06,7.50
2020,05,27,06,07,7.50
2020,05,27,06,08,7.50
2020,05,27,06,09,7.50
2020,05,27,06,10,7.50
2020,05,27,06,11,7.50
2020,05,27,06,12,7.60
2020,05,27,06,13,7.60
2020,05,27,06,14,7.60
2020,05,27,06,15,7.60
2020,05,27,06,16,7.60
2020,05,27,06,17,7.60
2020,05,27,06,18,7.60
2020,05,27,06,19,7.60
2020,05,27,06,20,7.60
2020,05,27,06,21,7.60
2020,05,27,06,22,7.60
2020,05,27,06,23,7.70
2020,05,27,06,24,7.70
2020,05,27,06,25,7.80
2020,05,27,06,26,7.80
2020,05,27,06,27,7.80
2020,05,27,06,28,7.90
2020,05,27,06,29,7.90
2020,05,27,06,30,8.00
2020,05,27,06,31,8.00
2020,05,27,06,32,8.10
2020,05,27,06,33,8.10
2020,05,27,06,34,8.10
2020,05,27,06,35,8.20
2020,05,27,06,36,8.20
2020,05,27,06,37,8.30
2020,05,27,06,38,8.30
2020,05,27,06,39,8.40
2020,05,27,06,40,8.40
2020,05,27,06,41,8.40
2020,05,27,06,42,8.50
2020,05,27,06,43,8.50
2020,05,27,06,44,8.60
2020,05,27,06,45,8.60
2020,05,27,06,46,8.60
2020,05,27,06,47,8.60
2020,05,27,06,48,8.70
2020,05,27,06,49,8.70
2020,05,27,06,50,8.80
2020,05,27,06,51,8.80
2020,05,27,06,52,8.90
2020,05,27,06,53,9.00
2020,05,27,06,54,9.00
2020,05,27,06,55,9.10
2020,05,27,06,56,9.10
2020,05,27,06,57,9.20
2020,05,27,06,58,9.30
2020,05,27,06,59,9.30
2020,05,27,07,00,9.40
2020,05,27,07,01,9.40
2020,05,27,07,02,9.40
2020,05,27,07,03,9.50
2020,05,27,07,04,9.60
2020,05,27,07,05,9.60
2020,05,27,07,06,9.70
2020,05,27,07,07,9.80
2020,05,27,07,08,9.80
2020,05,27,07,09,9.90
2020,05,27,07,10,9.90
2020,05,27,07,11,9.90
2020,05,27,07,12,9.90
2020,05,27,07,13,9.80
2020,05,27,07,14,9.80
2020,05,27,07,15,9.80
2020,05,27,07,16,9.80
2020,05,27,07,17,9.80
2020,05,27,07,18,9.80
2020,05,27,07,19,9.90
2020,05,27,07,20,9.90
2020,05,27,07,21,9.90
2020,05,27,07,22,9.90
2020,05,27,07,23,10.00
2020,05,27,07,24,10.00
2020,05,27,07,25,10.00
2020,05,27,07,26,10.10
2020,05,27,07,27,10.10
2020,05,27,07,28,10.10
2020,05,27,07,29,10.10
2020,05,27,07,30,10.10
2020,05,27,07,31,10.20
2020,05,27,07,32,10.20
2020,05,27,07,33,10.30
2020,05,27,07,34,10.30
2020,05,27,07,35,10.40
2020,05,27,07,36,10.40
2020,05,27,07,37,10.50
2020,05,27,07,38,10.60
2020,05,27,07,39,10.60
2020,05,27,07,40,10.70
2020,05,27,07,41,10.80
2020,05,27,07,42,10.80
2020,05,27,07,43,10.90
2020,05,27,07,44,11.00
2020,05,27,07,45,11.10
2020,05,27,07,46,11.10
2020,05,27,07,47,11.20
2020,05,27,07,48,11.20
2020,05,27,07,49,11.20
2020,05,27,07,50,11.30
2020,05,27,07,51,11.40
2020,05,27,07,52,11.50
2020,05,27,07,53,11.50
2020,05,27,07,54,11.60
2020,05,27,07,55,11.70
2020,05,27,07,56,11.80
2020,05,27,07,57,11.80
2020,05,27,07,58,11.90
2020,05,27,07,59,12.00
2020,05,27,08,00,12.10
2020,05,27,08,01,12.20
2020,05,27,08,02,12.30
2020,05,27,08,03,12.40
2020,05,27,08,04,12.40
2020,05,27,08,05,12.40
2020,05,27,08,06,12.50
2020,05,27,08,07,12.50
2020,05,27,08,08,12.60
2020,05,27,08,09,12.60
2020,05,27,08,10,12.60
2020,05,27,08,11,12.60
2020,05,27,08,12,12.60
2020,05,27,08,13,12.70
2020,05,27,08,14,12.70
2020,05,27,08,15,12.80
2020,05,27,08,16,12.90
2020,05,27,08,17,12.90
2020,05,27,08,18,13.00
2020,05,27,08,19,13.10
2020,05,27,08,20,13.20
2020,05,27,08,21,13.20
2020,05,27,08,22,13.30
2020,05,27,08,23,13.40
2020,05,27,08,24,13.50
2020,05,27,08,25,13.50
2020,05,27,08,26,13.60
2020,05,27,08,27,13.70
2020,05,27,08,28,13.70
2020,05,27,08,29,13.80
2020,05,27,08,30,13.80
2020,05,27,08,31,13.80
2020,05,27,08,32,13.80
2020,05,27,08,33,13.80
2020,05,27,08,34,13.90
2020,05,27,08,35,13.90
2020,05,27,08,36,13.90
2020,05,27,08,37,13.90
2020,05,27,08,38,13.90
2020,05,27,08,39,13.90
2020,05,27,08,40,14.00
2020,05,27,08,41,14.00
2020,05,27,08,42,14.10
2020,05,27,08,43,14.10
2020,05,27,08,44,14.10
2020,05,27,08,45,14.10
2020,05,27,08,46,14.20
2020,05,27,08,47,14.30
2020,05,27,08,48,14.30
2020,05,27,08,49,14.30
2020,05,27,08,50,14.40
2020,05,27,08,51,14.40
2020,05,27,08,52,14.40
2020,05,27,08,53,14.50
2020,05,27,08,54,14.60
2020,05,27,08,55,14.60
2020,05,27,08,56,14.60
2020,05,27,08,57,14.70
2020,05,27,08,58,14.80
2020,05,27,08,59,14.90
2020,05,27,09,00,15.00
2020,05,27,09,01,15.20
2020,05,27,09,02,15.20
2020,05,27,09,03,15.30
2020,05,27,09,04,15.30
2020,05,27,09,05,15.30
2020,05,27,09,06,15.30
2020,05,27,09,07,15.30
2020,05,27,09,08,15.30
2020,05,27,09,09,15.30
2020,05,27,09,10,15.30
2020,05,27,09,11,15.40
2020,05,27,09,12,15.40
2020,05,27,09,13,15.40
2020,05,27,09,14,15.40
2020,05,27,09,15,15.40
2020,05,27,09,16,15.40
2020,05,27,09,17,15.30
2020,05,27,09,18,15.30
2020,05,27,09,19,15.20
2020,05,27,09,20,15.20
2020,05,27,09,21,15.10
2020,05,27,09,22,15.00
2020,05,27,09,23,14.90
2020,05,27,09,24,14.90
2020,05,27,09,25,14.90
2020,05,27,09,26,14.90
2020,05,27,09,27,15.00
2020,05,27,09,28,15.10
2020,05,27,09,29,15.10
2020,05,27,09,30,15.10
2020,05,27,09,31,15.20
2020,05,27,09,32,15.30
2020,05,27,09,33,15.30
2020,05,27,09,34,15.30
2020,05,27,09,35,15.30
2020,05,27,09,36,15.30
2020,05,27,09,37,15.40
2020,05,27,09,38,15.50
2020,05,27,09,39,15.60
2020,05,27,09,40,15.70
2020,05,27,09,41,15.80
2020,05,27,09,42,15.90
2020,05,27,09,43,16.00
2020,05,27,09,44,16.10
2020,05,27,09,45,16.20
2020,05,27,09,46,16.20
2020,05,27,09,47,16.30
2020,05,27,09,48,16.30
2020,05,27,09,49,16.30
2020,05,27,09,50,16.30
2020,05,27,09,51,16.30
2020,05,27,09,52,16.30
2020,05,27,09,53,16.30
2020,05,27,09,54,16.30
2020,05,27,09,55,16.30
2020,05,27,09,56,16.40
2020,05,27,09,57,16.40
2020,05,27,09,58,16.40
2020,05,27,09,59,16.40
2020,05,27,10,00,16.50
2020,05,27,10,01,16.50
2020,05,27,10,02,16.50
2020,05,27,10,03,16.40
2020,05,27,10,04,16.40
2020,05,27,10,05,16.50
2020,05,27,10,06,16.50
2020,05,27,10,07,16.60
2020,05,27,10,08,16.80
2020,05,27,10,09,16.80
2020,05,27,10,10,16.80
2020,05,27,10,11,16.80
2020,05,27,10,12,16.80
2020,05,27,10,13,16.80
2020,05,27,10,14,16.80
2020,05,27,10,15,16.80
2020,05,27,10,16,16.80
2020,05,27,10,17,16.90
2020,05,27,10,18,17.00
2020,05,27,10,19,17.10
2020,05,27,10,20,17.20
2020,05,27,10,21,17.30
2020,05,27,10,22,17.50
2020,05,27,10,23,17.60
2020,05,27,10,24,17.80
2020,05,27,10,25,17.80
2020,05,27,10,26,17.90
2020,05,27,10,27,17.90
2020,05,27,10,28,18.00
2020,05,27,10,29,18.00
2020,05,27,10,30,18.00
2020,05,27,10,31,18.00
2020,05,27,10,32,18.00
2020,05,27,10,33,18.00
2020,05,27,10,34,18.00
2020,05,27,10,35,18.00
2020,05,27,10,36,18.10
2020,05,27,10,37,18.10
2020,05,27,10,38,18.10
2020,05,27,10,39,18.10
2020,05,27,10,40,18.10
2020,05,27,10,41,18.20
2020,05,27,10,42,18.20
2020,05,27,10,43,18.20
2020,05,27,10,44,18.20
2020,05,27,10,45,18.30
2020,05,27,10,46,18.30
2020,05,27,10,47,18.30
2020,05,27,10,48,18.30
2020,05,27,10,49,18.30
2020,05,27,10,50,18.30
2020,05,27,10,51,18.30
2020,05,27,10,52,18.30
2020,05,27,10,53,18.30
2020,05,27,10,54,18.20
2020,05,27,10,55,18.20
2020,05,27,10,56,18.30
2020,05,27,10,57,18.40
2020,05,27,10,58,18.50
2020,05,27,10,59,18.60
2020,05,27,11,00,18.70
2020,05,27,11,01,18.90
2020,05,27,11,02,19.00
2020,05,27,11,03,19.10
2020,05,27,11,04,19.20
2020,05,27,11,05,19.20
2020,05,27,11,06,19.30
2020,05,27,11,07,19.30
2020,05,27,11,08,19.30
2020,05,27,11,09,19.40
2020,05,27,11,10,19.40
2020,05,27,11,11,19.50
2020,05,27,11,12,19.60
2020,05,27,11,13,19.70
2020,05,27,11,14,19.70
2020,05,27,11,15,19.70
2020,05,27,11,16,19.70
2020,05,27,11,17,19.70
2020,05,27,11,18,19.60
2020,05,27,11,19,19.60
2020,05,27,11,20,19.60
2020,05,27,11,21,19.50
2020,05,27,11,22,19.50
2020,05,27,11,23,19.50
2020,05,27,11,24,19.40
2020,05,27,11,25,19.40
2020,05,27,11,26,19.50
2020,05,27,11,27,19.40
2020,05,27,11,28,19.30
2020,05,27,11,29,19.30
2020,05,27,11,30,19.20
2020,05,27,11,31,19.10
2020,05,27,11,32,19.00
2020,05,27,11,33,18.70
2020,05,27,11,34,18.50
2020,05,27,11,35,18.50
2020,05,27,11,36,18.50
2020,05,27,11,37,18.60
2020,05,27,11,38,18.70
2020,05,27,11,39,18.80
2020,05,27,11,40,18.90
2020,05,27,11,41,18.90
2020,05,27,11,42,18.90
2020,05,27,11,43,18.80
2020,05,27,11,44,18.70
2020,05,27,11,45,18.60
2020,05,27,11,46,18.50
2020,05,27,11,47,18.40
2020,05,27,11,48,18.30
2020,05,27,11,49,18.30
2020,05,27,11,50,18.30
2020,05,27,11,51,18.30
2020,05,27,11,52,18.30
2020,05,27,11,53,18.20
2020,05,27,11,54,18.20
2020,05,27,11,55,18.20
2020,05,27,11,56,18.10
2020,05,27,11,57,17.90
2020,05,27,11,58,17.80
2020,05,27,11,59,17.80
2020,05,27,12,00,17.70
2020,05,27,12,01,17.70
2020,05,27,12,02,17.80
2020,05,27,12,03,17.80
2020,05,27,12,04,17.80
2020,05,27,12,05,17.80
2020,05,27,12,06,17.80
2020,05,27,12,07,17.80
2020,05,27,12,08,17.80
2020,05,27,12,09,17.80
2020,05,27,12,10,17.90
2020,05,27,12,11,17.90
2020,05,27,12,12,17.90
2020,05,27,12,13,17.80
2020,05,27,12,14,17.90
2020,05,27,12,15,17.90
2020,05,27,12,16,18.00
2020,05,27,12,17,18.10
2020,05,27,12,18,18.10
2020,05,27,12,19,18.20
2020,05,27,12,20,18.30
2020,05,27,12,21,18.40
2020,05,27,12,22,18.50
2020,05,27,12,23,18.50
2020,05,27,12,24,18.60
2020,05,27,12,25,18.60
2020,05,27,12,26,18.60
2020,05,27,12,27,18.70
2020,05,27,12,28,18.80
2020,05,27,12,29,18.80
2020,05,27,12,30,18.90
2020,05,27,12,31,18.90
2020,05,27,12,32,19.00
2020,05,27,12,33,19.00
2020,05,27,12,34,19.00
2020,05,27,12,35,18.90
2020,05,27,12,36,18.80
2020,05,27,12,37,18.80
2020,05,27,12,38,18.80
2020,05,27,12,39,18.70
2020,05,27,12,40,18.60
2020,05,27,12,41,18.60
2020,05,27,12,42,18.60
2020,05,27,12,43,18.60
2020,05,27,12,44,18.70
2020,05,27,12,45,18.70
2020,05,27,12,46,18.70
2020,05,27,12,47,18.70
2020,05,27,12,48,18.70
2020,05,27,12,49,18.80
2020,05,27,12,50,18.90
2020,05,27,12,51,18.90
2020,05,27,12,52,18.90
2020,05,27,12,53,19.00
2020,05,27,12,54,19.00
2020,05,27,12,55,18.90
2020,05,27,12,56,18.90
2020,05,27,12,57,18.90
2020,05,27,12,58,18.90
2020,05,27,12,59,18.80
2020,05,27,13,00,18.80
2020,05,27,13,01,18.90
2020,05,27,13,02,18.90
2020,05,27,13,03,18.90
2020,05,27,13,04,18.90
2020,05,27,13,05,18.90
2020,05,27,13,06,18.80
2020,05,27,13,07,18.70
2020,05,27,13,08,18.60
2020,05,27,13,09,18.60
2020,05,27,13,10,18.60
2020,05,27,13,11,18.40
2020,05,27,13,12,18.30
2020,05,27,13,13,18.10
2020,05,27,13,14,18.10
2020,05,27,13,15,18.20
2020,05,27,13,16,18.30
2020,05,27,13,17,18.40
2020,05,27,13,18,18.50
2020,05,27,13,19,18.50
2020,05,27,13,20,18.60
2020,05,27,13,21,18.70
2020,05,27,13,22,18.80
2020,05,27,13,23,18.90
2020,05,27,13,24,19.00
2020,05,27,13,25,19.10
2020,05,27,13,26,19.00
2020,05,27,13,27,18.90
2020,05,27,13,28,18.80
2020,05,27,13,29,18.80
2020,05,27,13,30,18.80
2020,05,27,13,31,18.80
2020,05,27,13,32,18.90
2020,05,27,13,33,18.90
2020,05,27,13,34,18.90
2020,05,27,13,35,18.80
2020,05,27,13,36,18.80
2020,05,27,13,37,18.60
2020,05,27,13,38,18.30
2020,05,27,13,39,18.20
2020,05,27,13,40,18.20
2020,05,27,13,41,18.30
2020,05,27,13,42,18.50
2020,05,27,13,43,18.70
2020,05,27,13,44,18.90
2020,05,27,13,45,19.10
2020,05,27,13,46,19.20
2020,05,27,13,47,19.30
2020,05,27,13,48,19.30
2020,05,27,13,49,19.30
2020,05,27,13,50,19.40
2020,05,27,13,51,19.40
2020,05,27,13,52,19.60
2020,05,27,13,53,19.70
2020,05,27,13,54,19.80
2020,05,27,13,55,19.90
2020,05,27,13,56,20.00
2020,05,27,13,57,20.10
2020,05,27,13,58,19.90
2020,05,27,13,59,19.70
2020,05,27,14,00,19.60
2020,05,27,14,01,19.50
2020,05,27,14,02,19.30
2020,05,27,14,03,19.10
2020,05,27,14,04,19.00
2020,05,27,14,05,19.00
2020,05,27,14,06,19.00
2020,05,27,14,07,19.10
2020,05,27,14,08,19.20
2020,05,27,14,09,19.30
2020,05,27,14,10,19.50
2020,05,27,14,11,19.70
2020,05,27,14,12,19.70
2020,05,27,14,13,19.60
2020,05,27,14,14,19.60
2020,05,27,14,15,19.50
2020,05,27,14,16,19.40
2020,05,27,14,17,19.40
2020,05,27,14,18,19.50
2020,05,27,14,19,19.50
2020,05,27,14,20,19.70
2020,05,27,14,21,19.80
2020,05,27,14,22,19.90
2020,05,27,14,23,20.00
2020,05,27,14,24,20.10
2020,05,27,14,25,20.20
2020,05,27,14,26,20.40
2020,05,27,14,27,20.40
2020,05,27,14,28,20.40
2020,05,27,14,29,20.20
2020,05,27,14,30,20.10
2020,05,27,14,31,20.10
2020,05,27,14,32,20.00
2020,05,27,14,33,20.00
2020,05,27,14,34,20.10
2020,05,27,14,35,20.20
2020,05,27,14,36,20.40
2020,05,27,14,37,20.50
2020,05,27,14,38,20.50
2020,05,27,14,39,20.60
2020,05,27,14,40,20.50
2020,05,27,14,41,20.50
2020,05,27,14,42,20.50
2020,05,27,14,43,20.40
2020,05,27,14,44,20.40
2020,05,27,14,45,20.50
2020,05,27,14,46,20.50
2020,05,27,14,47,20.50
2020,05,27,14,48,20.60
2020,05,27,14,49,20.60
2020,05,27,14,50,20.50
2020,05,27,14,51,20.50
2020,05,27,14,52,20.40
2020,05,27,14,53,20.30
2020,05,27,14,54,20.20
2020,05,27,14,55,20.00
2020,05,27,14,56,19.70
2020,05,27,14,57,19.50
2020,05,27,14,58,19.50
2020,05,27,14,59,19.50
2020,05,27,15,00,19.60
2020,05,27,15,01,19.70
2020,05,27,15,02,19.90
2020,05,27,15,03,20.00
2020,05,27,15,04,20.10
2020,05,27,15,05,20.20
2020,05,27,15,06,20.20
2020,05,27,15,07,20.20
2020,05,27,15,08,20.20
2020,05,27,15,09,20.20
2020,05,27,15,10,20.30
2020,05,27,15,11,20.40
2020,05,27,15,12,20.40
2020,05,27,15,13,20.50
2020,05,27,15,14,20.50
2020,05,27,15,15,20.60
2020,05,27,15,16,20.60
2020,05,27,15,17,20.60
2020,05,27,15,18,20.50
2020,05,27,15,19,20.50
2020,05,27,15,20,20.50
2020,05,27,15,21,20.60
2020,05,27,15,22,20.80
2020,05,27,15,23,20.90
2020,05,27,15,24,21.00
2020,05,27,15,25,21.10
2020,05,27,15,26,21.00
2020,05,27,15,27,21.00
2020,05,27,15,28,21.00
2020,05,27,15,29,21.00
2020,05,27,15,30,21.00
2020,05,27,15,31,20.90
2020,05,27,15,32,20.90
2020,05,27,15,33,20.80
2020,05,27,15,34,20.70
2020,05,27,15,35,20.60
2020,05,27,15,36,20.60
2020,05,27,15,37,20.60
2020,05,27,15,38,20.60
2020,05,27,15,39,20.70
2020,05,27,15,40,20.70
2020,05,27,15,41,20.80
2020,05,27,15,42,20.90
2020,05,27,15,43,20.90
2020,05,27,15,44,21.00
2020,05,27,15,45,21.00
2020,05,27,15,46,21.10
2020,05,27,15,47,21.10
2020,05,27,15,48,21.10
2020,05,27,15,49,21.00
2020,05,27,15,50,20.80
2020,05,27,15,51,20.70
2020,05,27,15,52,20.60
2020,05,27,15,53,20.60
2020,05,27,15,54,20.60
2020,05,27,15,55,20.60
2020,05,27,15,56,20.50
2020,05,27,15,57,20.50
2020,05,27,15,58,20.50
2020,05,27,15,59,20.50
2020,05,27,16,00,20.50
2020,05,27,16,01,20.50
2020,05,27,16,02,20.60
2020,05,27,16,03,20.60
2020,05,27,16,04,20.70
2020,05,27,16,05,20.80
2020,05,27,16,06,20.90
2020,05,27,16,07,20.90
2020,05,27,16,08,20.90
2020,05,27,16,09,20.80
2020,05,27,16,10,20.70
2020,05,27,16,11,20.60
2020,05,27,16,12,20.50
2020,05,27,16,13,20.30
2020,05,27,16,14,20.20
2020,05,27,16,15,20.10
2020,05,27,16,16,20.10
2020,05,27,16,17,20.00
2020,05,27,16,18,20.00
2020,05,27,16,19,20.10
2020,05,27,16,20,20.10
2020,05,27,16,21,20.20
2020,05,27,16,22,20.30
2020,05,27,16,23,20.40
2020,05,27,16,24,20.40
2020,05,27,16,25,20.50
2020,05,27,16,26,20.60
2020,05,27,16,27,20.60
2020,05,27,16,28,20.50
2020,05,27,16,29,20.50
2020,05,27,16,30,20.40
2020,05,27,16,31,20.40
2020,05,27,16,32,20.40
2020,05,27,16,33,20.40
2020,05,27,16,34,20.50
2020,05,27,16,35,20.50
2020,05,27,16,36,20.50
2020,05,27,16,37,20.50
2020,05,27,16,38,20.50
2020,05,27,16,39,20.60
2020,05,27,16,40,20.60
2020,05,27,16,41,20.70
2020,05,27,16,42,20.70
2020,05,27,16,43,20.70
2020,05,27,16,44,20.70
2020,05,27,16,45,20.80
2020,05,27,16,46,20.80
2020,05,27,16,47,20.80
2020,05,27,16,48,20.80
2020,05,27,16,49,20.80
2020,05,27,16,50,20.90
2020,05,27,16,51,20.90
2020,05,27,16,52,20.90
2020,05,27,16,53,20.90
2020,05,27,16,54,21.00
2020,05,27,16,55,21.00
2020,05,27,16,56,21.00
2020,05,27,16,57,21.00
2020,05,27,16,58,21.00
2020,05,27,16,59,21.00
2020,05,27,17,00,21.00
2020,05,27,17,01,21.10
2020,05,27,17,02,21.10
2020,05,27,17,03,21.20
2020,05,27,17,04,21.20
2020,05,27,17,05,21.20
2020,05,27,17,06,21.20
2020,05,27,17,07,21.20
2020,05,27,17,08,21.10
2020,05,27,17,09,21.00
2020,05,27,17,10,20.80
2020,05,27,17,11,20.70
2020,05,27,17,12,20.50
2020,05,27,17,13,20.50
2020,05,27,17,14,20.40
2020,05,27,17,15,20.40
2020,05,27,17,16,20.50
2020,05,27,17,17,20.50
2020,05,27,17,18,20.50
2020,05,27,17,19,20.50
2020,05,27,17,20,20.50
2020,05,27,17,21,20.40
2020,05,27,17,22,20.30
2020,05,27,17,23,20.30
2020,05,27,17,24,20.20
2020,05,27,17,25,20.10
2020,05,27,17,26,20.10
2020,05,27,17,27,20.00
2020,05,27,17,28,19.90
2020,05,27,17,29,19.80
2020,05,27,17,30,19.80
2020,05,27,17,31,19.80
2020,05,27,17,32,19.70
2020,05,27,17,33,19.60
2020,05,27,17,34,19.60
2020,05,27,17,35,19.50
2020,05,27,17,36,19.40
2020,05,27,17,37,19.30
2020,05,27,17,38,19.20